Regional Weather Roundup
Issued by NWS

Home | Current Version | Previous Version | Text Only | Print | Product List | Glossary On
Versions: 1 2 3 4 5 6 7 8 9 10 11 12 13 14 15 16 17 18 19 20 21 22 23 24 25 26 27 28 29 30 31 32 33 34 35 36 37 38 39 40 41 42 43 44 45 46 47 48 49 50
000
ASUS46 KPQR 300210
RWROR

OREGON REGIONAL WEATHER ROUNDUP
NATIONAL WEATHER SERVICE PORTLAND OR
700 PM PDT SUN MAR 29 2015

NOTE: "FAIR" INDICATES FEW OR NO CLOUDS BELOW 12,000 FEET WITH
NO SIGNIFICANT WEATHER AND/OR OBSTRUCTIONS TO VISIBILITY.

ORZ001>013-300300-
NORTHWEST OREGON


CITY           SKY/WX    TMP DP  RH WIND       PRES   REMARKS
ASTORIA        CLOUDY    54  50  86 SW9       30.19F
NEWPORT        CLOUDY    52  50  93 CALM      30.23F
PORTLAND       PTCLDY    66  43  43 NW5       30.16F
VANCOUVER WA   CLEAR     67  40  37 CALM      30.15F
SCAPPOOSE      CLEAR     63  45  51 CALM      30.16F
HILLSBORO      CLEAR     64  48  56 N3        30.15F
AURORA         CLEAR     64  42  44 CALM      30.17F
MCMINNVILLE    CLEAR     63  48  58 SE5       30.17F
SALEM          PTCLDY    66  36  32 CALM      30.15F
CORVALLIS      PTCLDY    66  46  48 CALM      30.17F
EUGENE         MOCLDY    62  49  62 NE5       30.16F
$$

ORZ021-028-300300-
SOUTHWEST OREGON


CITY           SKY/WX    TMP DP  RH WIND       PRES   REMARKS
NORTH BEND     CLEAR     55  54  94 N8        30.21F
BROOKINGS      CLEAR     58  50  75 NW6       30.15S
ROSEBURG       PTCLDY    70  40  33 N6        30.14F
SEXTON SUMMIT  PTCLDY    53  40  61 VRB5      30.19S
MEDFORD        CLEAR     72  36  26 CALM      30.11F
$$

ORZ014>016-041-300300-
COLUMBIA GORGE


CITY           SKY/WX    TMP DP  RH WIND       PRES   REMARKS
TROUTDALE      CLEAR     66  37  34 CALM      30.15F
THE DALLES     PTCLDY    66  34  30 NW14      30.11F
$$

ORZ029>031-041-044-049-050-061>064-502-503-505>511-300300-
EASTERN OREGON


CITY           SKY/WX    TMP DP  RH WIND       PRES   REMARKS
REDMOND        MOCLDY    61  35  37 N9        30.13S
BEND           MOCLDY    63  32  31 N9        30.14S
PRINEVILLE     MOCLDY    61  34  36 NW10      30.14S
KLAMATH FALLS  PTCLDY    65  35  33 W3        30.15F
LAKEVIEW       CLEAR     61  28  29 S7        30.17S
HERMISTON      MOCLDY    64  38  38 SW9       30.10F
PENDLETON      MOCLDY    63  37  38 CALM      30.13F
JOHN DAY       CLEAR     62  35  36 CALM      30.14F
MEACHAM        MOCLDY    52  39  61 CALM      30.18S
LA GRANDE      PTCLDY    63  32  31 S7        30.12F
BAKER CITY     PTCLDY    57  33  40 E12       30.15F
BURNS          CLEAR     58  30  34 NE5       30.16F
ROME             N/A     65  14  14 N10       30.14S
ONTARIO        PTCLDY    63  31  30 CALM      30.16F
$$


USA.gov is the U.S. government's official web portal to all federal, state and local government web resources and services.